Glenwood, MN

1:12 AM CDT on June 23, 2017 (GMT -0500)
Glenwood Municipal

Weather History for KGHW - November, 2010

Change the Weather History Date:

Friday, November 12, 2010

  Actual Average Record
Temperature  
Mean Temperature 38 °F -  
Max Temperature 44 °F 38 °F 62 °F (2011)
Min Temperature 32 °F 21 °F -4 °F (1966)
Degree Days  
Heating Degree Days 27    
Moisture  
Dew Point 27 °F    
Average Humidity 67    
Maximum Humidity 87    
Minimum Humidity 39    
Precipitation  
Precipitation 0.00 in - - ()
Sea Level Pressure  
Sea Level Pressure 30.41 in    
Wind  
Wind Speed 4 mph (ENE)    
Max Wind Speed 8 mph    
Max Gust Speed -    
Visibility 10 miles    
Events      
Averages and records for this station are not official NWS values.
T = Trace of Precipitation, MM = Missing Value Source: NWS Daily Summary

Daily Weather History Graph

Daily Weather History Graph

Search for Another Location

Airport or City:

Trip Planner

Search our weather history database for the weather conditions in past years. The results will help you decide how hot, cold, wet, or windy it might be!

Date:

Astronomy

Nov. 12, 2010 Rise Set
Actual Time 7:16 AM CST 4:53 PM CST
Civil Twilight 6:44 AM CST 5:25 PM CST
Nautical Twilight 6:08 AM CST 6:01 PM CST
Astronomical Twilight 5:33 AM CST 6:36 PM CST
Moon 12:44 PM CST (11/12) 11:05 PM CST (11/12)
Length of Visible Light 10h 41m
Length of Day
9h 37m
Waxing Crescent, 41% of the Moon is Illuminated
Nov 12
Waxing Crescent
Nov 13
First Quarter
Nov 21
Full
Nov 28
Last Quarter
Dec 5
New

Hourly Weather History & Observations

Time (CST) Temp. Windchill Dew Point Humidity Pressure Visibility Wind Dir Wind Speed Gust Speed Precip Events Conditions
12:13 AM 35.6 °F 30.7 °F 28.4 °F 75% 30.42 in 10.0 mi West 5.8 mph - N/A   Clear
12:34 AM 35.6 °F 30.7 °F 28.4 °F 75% 30.42 in 10.0 mi West 5.8 mph - N/A   Clear
12:54 AM 35.6 °F 31.7 °F 28.4 °F 75% 30.42 in 10.0 mi West 4.6 mph - N/A   Clear
1:13 AM 35.6 °F 30.7 °F 28.4 °F 75% 30.43 in 10.0 mi West 5.8 mph - N/A   Clear
1:34 AM 35.6 °F 30.7 °F 28.4 °F 75% 30.43 in 10.0 mi West 5.8 mph - N/A   Clear
1:54 AM 35.6 °F 31.7 °F 28.4 °F 75% 30.42 in 10.0 mi West 4.6 mph - N/A   Clear
2:34 AM 35.6 °F 32.8 °F 28.4 °F 75% 30.41 in 10.0 mi WNW 3.5 mph - N/A   Clear
2:53 AM 33.8 °F - 28.4 °F 81% 30.42 in 10.0 mi Calm Calm - N/A   Clear
3:14 AM 33.8 °F - 28.4 °F 81% 30.42 in 10.0 mi Calm Calm - N/A   Clear
3:33 AM 33.8 °F - 28.4 °F 81% 30.42 in 10.0 mi Calm Calm - N/A   Clear
3:53 AM 33.8 °F 30.8 °F 26.6 °F 75% 30.41 in 10.0 mi NNW 3.5 mph - N/A   Clear
4:14 AM 33.8 °F - 28.4 °F 81% 30.42 in 10.0 mi Calm Calm - N/A   Clear
4:34 AM 33.8 °F - 28.4 °F 81% 30.43 in 10.0 mi Calm Calm - N/A   Clear
4:53 AM 33.8 °F - 28.4 °F 81% 30.42 in 10.0 mi Calm Calm - N/A   Clear
5:13 AM 33.8 °F - 28.4 °F 81% 30.42 in 10.0 mi Calm Calm - N/A   Clear
5:33 AM 33.8 °F 30.8 °F 26.6 °F 75% 30.43 in 10.0 mi North 3.5 mph - N/A   Clear
5:53 AM 33.8 °F 30.8 °F 26.6 °F 75% 30.42 in 10.0 mi North 3.5 mph - N/A   Clear
6:13 AM 32.0 °F 27.5 °F 26.6 °F 80% 30.42 in 10.0 mi North 4.6 mph - N/A   Clear
6:34 AM 33.8 °F 30.8 °F 26.6 °F 75% 30.42 in 10.0 mi ENE 3.5 mph - N/A   Mostly Cloudy
6:54 AM 33.8 °F 29.6 °F 28.4 °F 81% 30.43 in 10.0 mi NE 4.6 mph - N/A   Overcast
7:13 AM 33.8 °F 30.8 °F 28.4 °F 81% 30.43 in 10.0 mi NE 3.5 mph - N/A   Overcast
7:33 AM 32.0 °F 28.7 °F 28.4 °F 87% 30.43 in 10.0 mi ENE 3.5 mph - N/A   Overcast
7:54 AM 32.0 °F 28.7 °F 28.4 °F 87% 30.43 in 10.0 mi East 3.5 mph - N/A   Mostly Cloudy
8:13 AM 33.8 °F 29.6 °F 28.4 °F 81% 30.43 in 10.0 mi East 4.6 mph - N/A   Scattered Clouds
8:34 AM 33.8 °F 29.6 °F 28.4 °F 81% 30.43 in 10.0 mi East 4.6 mph - N/A   Scattered Clouds
8:53 AM 33.8 °F 30.8 °F 28.4 °F 81% 30.43 in 10.0 mi ENE 3.5 mph - N/A   Scattered Clouds
9:13 AM 35.6 °F 31.7 °F 28.4 °F 75% 30.44 in 10.0 mi ENE 4.6 mph - N/A   Clear
9:33 AM 35.6 °F 31.7 °F 28.4 °F 75% 30.43 in 10.0 mi ENE 4.6 mph - N/A   Scattered Clouds
9:53 AM 35.6 °F 30.7 °F 28.4 °F 75% 30.43 in 10.0 mi ENE 5.8 mph - N/A   Scattered Clouds
10:13 AM 37.4 °F 32.1 °F 28.4 °F 70% 30.43 in 10.0 mi East 6.9 mph - N/A   Scattered Clouds
10:33 AM 39.2 °F 34.2 °F 26.6 °F 61% 30.43 in 10.0 mi East 6.9 mph - N/A   Clear
10:53 AM 41.0 °F 38.0 °F 28.4 °F 61% 30.44 in 10.0 mi East 4.6 mph - N/A   Scattered Clouds
11:14 AM 41.0 °F 38.0 °F 26.6 °F 57% 30.44 in 10.0 mi East 4.6 mph - N/A   Scattered Clouds
11:33 AM 41.0 °F 37.1 °F 26.6 °F 57% 30.43 in 10.0 mi ESE 5.8 mph - N/A   Scattered Clouds
11:53 AM 41.0 °F 36.4 °F 26.6 °F 57% 30.43 in 10.0 mi ESE 6.9 mph - N/A   Scattered Clouds
12:13 PM 42.8 °F 38.0 °F 24.8 °F 49% 30.42 in 10.0 mi ESE 8.1 mph - N/A   Scattered Clouds
12:33 PM 42.8 °F 39.3 °F 24.8 °F 49% 30.42 in 10.0 mi ESE 5.8 mph - N/A   Scattered Clouds
12:53 PM 42.8 °F 38.6 °F 21.2 °F 42% 30.42 in 10.0 mi ESE 6.9 mph - N/A   Overcast
1:13 PM 42.8 °F 38.6 °F 21.2 °F 42% 30.41 in 10.0 mi ESE 6.9 mph - N/A   Mostly Cloudy
1:33 PM 42.8 °F 41.1 °F 21.2 °F 42% 30.41 in 10.0 mi East 3.5 mph - N/A   Mostly Cloudy
1:53 PM 42.8 °F 41.1 °F 23.0 °F 46% 30.41 in 10.0 mi SE 3.5 mph - N/A   Scattered Clouds
2:13 PM 42.8 °F - 23.0 °F 46% 30.41 in 10.0 mi Calm Calm - N/A   Scattered Clouds
2:33 PM 44.6 °F 42.2 °F 21.2 °F 39% 30.39 in 10.0 mi SE 4.6 mph - N/A   Scattered Clouds
2:53 PM 42.8 °F 40.1 °F 21.2 °F 42% 30.39 in 10.0 mi SE 4.6 mph - N/A   Scattered Clouds
3:13 PM 42.8 °F - 23.0 °F 46% 30.39 in 10.0 mi Calm Calm - N/A   Scattered Clouds
3:34 PM 42.8 °F - 24.8 °F 49% 30.38 in 10.0 mi Calm Calm - N/A   Scattered Clouds
3:54 PM 42.8 °F 41.1 °F 23.0 °F 46% 30.38 in 10.0 mi East 3.5 mph - N/A   Scattered Clouds
4:13 PM 39.2 °F 37.0 °F 26.6 °F 61% 30.38 in 10.0 mi East 3.5 mph - N/A   Clear
4:34 PM 39.2 °F 37.0 °F 26.6 °F 61% 30.37 in 10.0 mi East 3.5 mph - N/A   Clear
4:54 PM 39.2 °F - 24.8 °F 56% 30.37 in 10.0 mi Calm Calm - N/A   Clear
5:14 PM 39.2 °F - 24.8 °F 56% 30.37 in 10.0 mi Calm Calm - N/A   Clear
5:33 PM 37.4 °F 34.9 °F 26.6 °F 65% 30.37 in 10.0 mi ENE 3.5 mph - N/A   Clear
5:53 PM 37.4 °F 34.9 °F 26.6 °F 65% 30.38 in 10.0 mi ENE 3.5 mph - N/A   Clear
6:13 PM 37.4 °F 33.8 °F 24.8 °F 60% 30.38 in 10.0 mi East 4.6 mph - N/A   Clear
6:33 PM 35.6 °F 31.7 °F 24.8 °F 65% 30.37 in 10.0 mi ENE 4.6 mph - N/A   Clear
6:53 PM 33.8 °F 29.6 °F 24.8 °F 70% 30.37 in 10.0 mi NE 4.6 mph - N/A   Clear
7:13 PM 35.6 °F 31.7 °F 21.2 °F 56% 30.37 in 10.0 mi NNE 4.6 mph - N/A   Clear
7:33 PM 35.6 °F 31.7 °F 23.0 °F 60% 30.36 in 10.0 mi NNE 4.6 mph - N/A   Clear
7:53 PM 35.6 °F 31.7 °F 24.8 °F 65% 30.36 in 10.0 mi NNE 4.6 mph - N/A   Clear
8:13 PM 33.8 °F 29.6 °F 24.8 °F 70% 30.36 in 10.0 mi NNE 4.6 mph - N/A   Clear
8:33 PM 33.8 °F 29.6 °F 23.0 °F 65% 30.36 in 10.0 mi NNE 4.6 mph - N/A   Clear
8:53 PM 33.8 °F 29.6 °F 24.8 °F 70% 30.36 in 10.0 mi NNE 4.6 mph - N/A   Clear
9:14 PM 32.0 °F 26.4 °F 24.8 °F 75% 30.35 in 10.0 mi NNE 5.8 mph - N/A   Clear
9:53 PM 33.8 °F 28.6 °F 24.8 °F 70% 30.35 in 10.0 mi NE 5.8 mph - N/A   Clear
10:13 PM 33.8 °F 29.6 °F 23.0 °F 65% 30.34 in 10.0 mi NNE 4.6 mph - N/A   Clear
10:34 PM 30.2 °F 24.3 °F 24.8 °F 80% 30.33 in 10.0 mi NNE 5.8 mph - N/A   Clear
10:53 PM 33.8 °F 28.6 °F 24.8 °F 70% 30.32 in 10.0 mi NNE 5.8 mph - N/A   Clear
11:34 PM 33.8 °F 27.7 °F 24.8 °F 70% 30.31 in 10.0 mi NNE 6.9 mph - N/A   Clear
11:54 PM 33.8 °F 27.7 °F 24.8 °F 70% 30.32 in 10.0 mi NNE 6.9 mph - N/A   Clear